Main page
Satellite images Climate Cyclones Lightning AirportsFAQ Languages Contact Newsletter About
Weather : Europe Africa North America South America Asia Australia-Oceania Others

, Sanya, Sanya Phoenix International Airport

latitude: , longitude: China, elevation: 18-18N m


METAR: ZJSY 240500Z 19004MPS 130V250 9999 FEW020 33/26 Q1009 NOSIG